This is the latest recevied weather packets stored in our database for station/object LU5DTF-WX. If no packets are shown the sender has not sent any weather packets the latest 10 day(s).
| Time | Temp. | Humidity | Pressure | Rain* | Wind** | Luminosity | Snow |
|---|---|---|---|---|---|---|---|
| 1787864703 | 13.89° C | 60% | 1005.8 hPa | 0 mm | - | - | - |
| 1787864403 | 14.44° C | 58% | 1005.6 hPa | 0 mm | - | - | - |
| 1787864103 | 14.44° C | 58% | 1005.5 hPa | 0 mm | - | - | - |
| 1787863803 | 14.44° C | 57% | 1005.3 hPa | 0 mm | - | - | - |
| 1787863503 | 15° C | 58% | 1005.3 hPa | 0 mm | - | - | - |
| 1787863203 | 15° C | 57% | 1005.2 hPa | 0 mm | - | - | - |
| 1787862903 | 15° C | 57% | 1005 hPa | 0 mm | - | - | - |
| 1787862603 | 15° C | 57% | 1004.9 hPa | 0 mm | - | - | - |
| 1787862303 | 15.56° C | 57% | 1004.9 hPa | 0 mm | - | - | - |
| 1787862003 | 15.56° C | 57% | 1004.8 hPa | 0 mm | - | - | - |
| 1787861703 | 15° C | 63% | 1004.7 hPa | 0 mm | - | - | - |
| 1787861403 | 14.44° C | 66% | 1004.8 hPa | 0 mm | - | - | - |
| 1787861103 | 14.44° C | 66% | 1004.8 hPa | 0 mm | - | - | - |
| 1787860803 | 15° C | 64% | 1004.5 hPa | 0 mm | - | - | - |
| 1787860503 | 15.56° C | 63% | 1004.3 hPa | 0 mm | - | - | - |
| 1787860203 | 15° C | 64% | 1004.3 hPa | 0 mm | - | - | - |
| 1787859903 | 14.44° C | 64% | 1004.2 hPa | 0 mm | - | - | - |
| 1787859603 | 15° C | 65% | 1004.2 hPa | 0 mm | - | - | - |
| 1787859303 | 14.44° C | 66% | 1004 hPa | 0 mm | - | - | - |
| 1787859003 | 15° C | 64% | 1004 hPa | 0 mm | - | - | - |
| 1787858703 | 15.56° C | 62% | 1004.1 hPa | 0 mm | - | - | - |
| 1787858403 | 15.56° C | 61% | 1004.2 hPa | 0 mm | - | - | - |
| 1787858103 | 15.56° C | 62% | 1004.2 hPa | 0 mm | - | - | - |
| 1787857803 | 15° C | 63% | 1004.1 hPa | 0 mm | - | - | - |
| 1787857503 | 15° C | 63% | 1004.1 hPa | 0 mm | - | - | - |
* Rain latest hour (hover to see other rain measurements)
** Current wind speed in m/s (hover to see current wind gust speed)